Flag for Japan Weather past 2 weeks in Fukushima, Japan

Now
45 °F

Cool.


Feels Like: 42 °F
Forecast: 40 / 57 °F
Wind: 7 mph from Northwest

Location: Wakamatsu


UV Index: 5 (Moderate)

Visibility: 13 mi


Pressure: 30.21 "Hg

Humidity: 62%

Dew point: 33 °F

Location of FukushimaLocation

Historic Weather in Fukushima

°F

Fukushima temperature yesterday

Maximum temperature yesterday: 60 °F (at 4:00 PM)
Minimum temperature yesterday: 47 °F (at 11:00 PM)
Average temperature yesterday: 54 °F

Past Weeks' High & Low Weather Summary

 TemperatureHumidityPressure
High68 °F (Apr 15, 3:00 PM)95% (Apr 6, 3:00 PM)30.19 "Hg (Apr 6, 3:00 PM)
Low32 °F (Apr 9, 5:00 AM)13% (Apr 16, 3:00 PM)29.55 "Hg (Apr 4, 8:00 PM)
Average47 °F58%29.98 "Hg
* Reported Apr 4 8:00 PM — Apr 19 8:00 PM, Fukushima, Weather by CustomWeather, © 2014

Note: Actual official high and low records may vary slightly from our data, if they occured in-between our weather recording intervals... More about our weather records

Advertising

Historic Weather Conditions — Data for Previous 24 hours

 ConditionsComfort  
Time TempWeatherWind HumidityBarometerVisibility
8:00 PM
Apr 19
46 °FCool.1 mph59%30.19 "Hg12 mi
7:00 PM47 °FCool.6 mph56%30.16 "Hg12 mi
6:00 PM49 °FCool.7 mph53%30.13 "Hg12 mi
5:00 PM51 °FCool.15 mph46%30.11 "Hg12 mi
4:00 PM54 °FCool.13 mph40%30.10 "Hg12 mi
3:00 PM55 °FRefreshingly cool.13 mph36%30.09 "Hg12 mi
2:00 PM55 °FRefreshingly cool.13 mph32%30.09 "Hg12 mi
1:00 PM55 °FCool.13 mph34%30.09 "Hg12 mi
12:00 PM53 °FCool.17 mph34%30.10 "Hg12 mi
11:00 AM53 °FCool.14 mph40%30.12 "Hg12 mi
10:00 AM49 °FCool.12 mph49%30.15 "Hg12 mi
9:00 AM50 °FCool.12 mph58%30.13 "Hg12 mi
8:00 AM45 °FQuite cool.14 mph66%30.11 "Hg12 mi
7:00 AM45 °FCool.6 mph59%30.10 "Hg12 mi
5:00 AM43 °FQuite cool.2 mph62%30.07 "Hg12 mi
4:00 AM42 °FQuite cool.3 mph68%30.05 "Hg12 mi
3:00 AM41 °FQuite cool.2 mph66%30.03 "Hg12 mi
2:00 AM42 °FQuite cool.2 mph63%30.01 "Hg12 mi
1:00 AM46 °FCool.6 mph52%30.01 "Hg12 mi
12:00 AM46 °FCool.5 mph56%30.03 "Hg12 mi
11:00 PM
Apr 18
47 °FCool.5 mph52%30.03 "Hg12 mi
10:00 PM48 °FCool.6 mph45%30.01 "Hg12 mi
9:00 PM49 °FCool.9 mph63%30.00 "Hg11 mi
Weather by CustomWeather, © 2014

See weather overview